sat.trackr.live / text

‹ back to catalog

STARLINK-1973

NORAD 47628 · 2021-012J

PAYLOAD ACTIVE UNKNOWN

§ Identity

Operator
Country
US
Launch date
2021-02-16
Launch site
AFETR
Launch vehicle
Mass (kg)
RCS (m²)

Purposes: comms

External: N2YO · Heavens-Above · Gunter

§ Orbital elements

Epoch: 2026-09-19T13:25:03.453600Z

Period
94.01 min
Inclination
53.1597°
Eccentricity
0.0001284
Mean motion
15.31701560 rev/d
Perigee alt
469.9 km
Apogee alt
471.6 km
Semi-major
6,848.9 km
B*
4.7068e-5
RAAN
242.7602°
Arg perigee
83.9345°
Mean anomaly
276.1803°
Rev number
30,979

§ Raw data

STARLINK-19731 47628U 21012J   26262.55906775  .00001096  00000+0  47068-4 0  99992 47628  53.1597 242.7602 0001284  83.9345 276.1803 15.31701560309793

JSON: /api/v1/satellites/47628 · /tle

For live sub-satellite position, see the globe view (requires WebGL).

§ Visibility from observer

Set your observer location to see the next 7 days of passes ≥ 10°. The values pass through the URL so the page stays shareable.

No JS? Fill the form by hand. The geolocation button needs JavaScript.